Location: Balmoral
(33.0667°S, 151.5833°E)
Time: 17:04:21
(UTC+00:00)

METEOR-M - Pass Details

Date: 18 September 2020
Orbit: 816 x 819 km, 98.5° (Epoch: 24 October)

Event Time Altitude Azimuth Distance (km) Brightness Sun altitude
Rises 18:28:33 0° 356° (N) 3,331 7.2 -17.3°
Reaches altitude 10° 18:31:00 10° 349° (N) 2,406 6.4 -16.8°
Maximum altitude 18:36:01 42° 279° (W) 1,168 4.5 -15.7°
Drops below altitude 10° 18:41:06 10° 208° (SSW) 2,434 6.4 -14.7°
Sets 18:43:36 0° 201° (SSW) 3,373 7.2 -14.2°
